Location: Sevilla
(37.3933°N, 5.9839°W)
Time: 06:01:42
(UTC+02:00)

Transit 2A - Pass Details

Date: 26 June 2024
Orbit: 591 x 960 km, 66.7° (Epoch: 15 July)

Event Time Altitude Azimuth Distance (km) Brightness Sun altitude
Rises 00:16:09 0° 343° (NNW) 3,544 10.8 -21.9°
Reaches altitude 10° 00:19:18 10° 359° (N) 2,642 9.6 -22.2°
Maximum altitude 00:23:58 22° 48° (NE) 1,967 8.2 -22.7°
Enters shadow 00:27:11 15° 85° (E) 2,332 8.2 -23.1°
Drops below altitude 10° 00:28:43 10° 97° (E) 2,690 - -23.2°
Sets 00:31:55 0° 112° (ESE) 3,626 - -23.5°
